Tracking 31027 objects as of 18-Jul-2025
HD Live streaming from Space Station
objects crossing your sky now

STARLINK-5365

Track STARLINK-5365 now!
10-day predictions
STARLINK-5365 is classified as:


NORAD ID: 55498
Int'l Code: 2023-015BB
Perigee: 565.3 km
Apogee: 567.1 km
Inclination: 43.0 °
Period: 95.8 minutes
Semi major axis: 6937 km
RCS: Unknown
Launch date: February 2, 2023
Source: United States (US)
Launch site: AIR FORCE EASTERN TEST RANGE (AFETR)
Your satellite tracking list
Your tracking list is empty




NASA's NSSDC Master Catalog

Two Line Element Set (TLE):
1 55498U 23015BB  25198.32248947 -.00000066  00000-0  10190-4 0  9994
2 55498  43.0030 177.4646 0001274 281.8694  78.2006 15.02534466135200
Source of the keplerian elements: AFSPC